Regional Weather Roundup
Issued by NWS

Home | Current Version | Previous Version | Text Only | Print | Product List | Glossary Off
Versions: 1 2 3 4 5 6 7 8 9 10 11 12 13 14 15 16 17 18 19 20 21 22 23 24 25 26 27 28 29 30 31 32 33 34 35 36 37 38 39 40 41 42 43 44 45 46 47 48 49 50

000
ASUS43 KOAX 310202
RWRNE

WEATHER ROUNDUP FOR NEBRASKA
NATIONAL WEATHER SERVICE OMAHA NE
900 PM CDT MON MAY 30 2016

NOTES: SATELLITE DATA IS BEING USED TO AUGMENT CLOUD COVER ABOVE
       12000 FEET.
       "FAIR" INDICATES FEW OR NO CLOUDS BELOW 12,000 FEET WITH NO
       SIGNIFICANT WEATHER AND/OR OBSTRUCTIONS TO VISIBILITY.

  * THESE STATIONS DO NOT REPORT WEATHER SUCH AS RAIN...SNOW OR FOG.

NEZ001>004-019>022-054>056-310300-
NEBRASKA PANHANDLE

CITY           SKY/WX    TMP DP  RH WIND       PRES   REMARKS
SCOTTSBLUFF    CLOUDY    65  46  50 NW7       29.93S
ALLIANCE       CLOUDY    62  49  62 W8        29.91S
CHADRON        MOCLDY    66  48  52 NW16G25   29.97R
SIDNEY         CLOUDY    58  51  78 SW9       29.94S
$$

NEZ057>060-069>072-079>082-310300-
SOUTHWEST NEBRASKA

CITY           SKY/WX    TMP DP  RH WIND       PRES   REMARKS
NORTH PLATTE   LGT RAIN  63  54  72 S9G25     29.91R
IMPERIAL       CLOUDY    61  52  72 NE9       29.87F
LEXINGTON      CLOUDY    68  52  55 W28G38    29.90R
MCCOOK         TSTM      60  54  80 N23G29    29.93S
$$

NEZ005>010-023>029-035>040-094-310300-
NORTH CENTRAL NEBRASKA

CITY           SKY/WX    TMP DP  RH WIND       PRES   REMARKS
VALENTINE      LGT RAIN  62  56  80 N8        29.88R
AINSWORTH      CLOUDY    56  52  86 S6        29.84F THUNDER
BROKEN BOW     CLOUDY    70  52  52 W22G30    29.88R THUNDER
ORD            CLOUDY    75  57  53 S9        29.80R
$$

NEZ041-046>049-061>064-073>077-083>087-310300-
SOUTH CENTRAL NEBRASKA

CITY           SKY/WX    TMP DP  RH WIND       PRES   REMARKS
GRAND ISLAND   CLOUDY    74  58  57 S10       29.84R
HASTINGS       CLOUDY    74  58  57 S8        29.84S
KEARNEY *      CLOUDY    75  55  50 S12       29.84S
YORK           CLEAR     73  59  60 S9        29.85S
$$

NEZ011>018-030>034-042>045-310300-
NORTHEAST NEBRASKA

CITY           SKY/WX    TMP DP  RH WIND       PRES   REMARKS
NORFOLK        CLEAR     76  55  48 S12       29.80S
ALBION         CLEAR     75  58  55 S10       29.82R
BLAIR          CLOUDY    70  61  73 SE16G28   29.89S
FREMONT        CLEAR     72  60  65 SE15G22   29.87S
TEKAMAH        CLOUDY    71  60  68 S25       29.86R
$$

NEZ050>053-065>068-078-088>093-310300-
SOUTHEAST NEBRASKA

CITY           SKY/WX    TMP DP  RH WIND       PRES   REMARKS
LINCOLN        PTCLDY    77  60  55 SE10      29.86S
OMAHA EPPLEY   CLOUDY    68  62  81 SE15      29.89S
FALLS CITY     LGT RAIN  75  62  64 S14       29.91S
PLATTSMOUTH    CLOUDY    69  61  76 E9        29.90F
$$

NEZ044-045-051>053-067-310300-
OMAHA AREA

CITY           SKY/WX    TMP DP  RH WIND       PRES   REMARKS
OMAHA EPPLEY   CLOUDY    68  62  81 SE15      29.89S
BLAIR          CLOUDY    70  61  73 SE16G28   29.89S
FREMONT        CLEAR     72  60  65 SE15G22   29.87S
PLATTSMOUTH    CLOUDY    69  61  76 E9        29.90F
$$




USA.gov is the U.S. government's official web portal to all federal, state and local government web resources and services.